GSAT0214 (PRN E05)

Last updated on Nov. 18, 2019, 4:21 a.m. UTC

1 41862U 16069D   19321.29200511  .00000081  00000-0  00000+0 0  9997
2 41862  54.6172 167.7619 0000806 317.9680  42.1069  1.70473168 18663
UTC
Height (km)
Latitude
Longitude
Inclination
Orbital Period
UTC large
Height (km)
Speed (km/s)
/
Latitude / Longitude
Inclination (degrees)
Orbital Period (minutes)
Azimuth
Elevation
Range (km)
Doppler Factor
iOS Compass Heading
iOS Angle

Next 30 passes for location: Hong Kong

Rise time Rise Azimuth (degrees) Set time Set Azimuth (degrees) Duration Max altitude (degrees)

No matching passes for this satellites